Location: Most
(50.5133°N, 13.6207°E)
Time: 06:10:40
(UTC+02:00)

UNHA 3 R/B - Visible Passes

Search period start: 18 October 2019 00:00
Search period end: 27 October 2019 23:00
Orbit: 478 x 559 km, 97.3° (Epoch: 17 October)

Date Brightness Start Highest point End Pass type
(mag) Time Alt. Az. Time Alt. Az. Time Alt. Az.
18 Oct 8.2 04:44:18 10° NE 04:46:19 14° E 04:48:20 10° SE visible
18 Oct 5.2 06:17:18 10° N 06:20:48 50° WNW 06:24:14 10° SSW visible
19 Oct 8.5 04:31:54 10° E 04:32:20 10° E 04:32:45 10° E visible
19 Oct 4.9 06:03:23 10° N 06:06:59 73° WNW 06:10:31 10° SSW visible
20 Oct 5.1 05:49:32 10° NNE 05:53:08 78° ESE 05:56:41 10° S visible
21 Oct 5.8 05:35:45 10° NNE 05:39:15 53° E 05:42:44 10° S visible
22 Oct 6.6 05:22:00 10° NNE 05:25:21 36° E 05:28:40 10° SSE visible
22 Oct 6.4 06:56:38 10° NNW 06:59:18 20° WNW 07:01:57 10° WSW visible
23 Oct 7.3 05:08:22 10° NE 05:11:25 26° E 05:14:27 10° SSE visible
23 Oct 6.0 06:42:30 10° N 06:45:33 27° WNW 06:48:35 10° SW visible
24 Oct 7.8 04:54:52 10° NE 04:57:27 19° E 05:00:03 10° SE visible
24 Oct 5.6 06:28:27 10° N 06:31:46 37° WNW 06:35:04 10° SW visible
25 Oct 8.2 04:41:37 10° ENE 04:43:29 14° E 04:45:20 10° ESE visible
25 Oct 5.1 06:14:29 10° N 06:17:58 53° WNW 06:21:26 10° SSW visible
26 Oct 4.9 06:00:33 10° N 06:04:08 77° WNW 06:07:42 10° SSW visible
27 Oct 5.2 04:46:42 10° NNE 04:50:16 73° ESE 04:53:51 10° S visible
